Location: Campillo
(40.8621°N, 4.2488°W)
Time: 12:54:10
(UTC+00:00)

X-37B - Pass Details

Date: 11 May 2021
Orbit: 386 x 389 km, 45.0° (Epoch: 10 June)

Event Time Altitude Azimuth Distance (km) Brightness Sun altitude
Rises 19:55:40 0° 288° (WNW) 2,273 6.6 -6.1°
Reaches altitude 10° 19:57:49 10° 296° (WNW) 1,417 5.3 -6.5°
Maximum altitude 20:00:52 42° 9° (N) 567 1.6 -7.0°
Drops below altitude 10° 20:03:55 10° 83° (E) 1,414 3.0 -7.5°
Enters shadow 20:04:40 - 86° (E) 1,708 3.4 -7.6°
